Regional Weather Roundup
Issued by NWS

Home | Current Version | Previous Version | Text Only | Print | Product List | Glossary Off
Versions: 1 2 3 4 5 6 7 8 9 10 11 12 13 14 15 16 17 18 19 20 21 22 23 24 25 26 27 28 29 30 31 32 33 34 35 36 37 38 39 40 41 42 43 44 45 46 47 48 49 50

427
ASUS43 KMKX 231411
RWRWI

WISCONSIN REGIONAL WEATHER ROUNDUP
NATIONAL WEATHER SERVICE MILWAUKEE/SULLIVAN WI
900 AM CDT SAT JUL 23 2016

NOTE: "FAIR" INDICATES FEW OR NO CLOUDS BELOW 12,000 FEET WITH NO
SIGNIFICANT WEATHER AND/OR OBSTRUCTIONS TO VISIBILITY.

WIZ001-002-006>008-014>016-023>028-231500-
NORTHWEST WISCONSIN

CITY           SKY/WX    TMP DP  RH WIND       PRES   REMARKS
SUPERIOR ARPT  SUNNY     73  63  71 NE9       29.97S
ASHLAND        SUNNY     76  65  68 NE5       30.00S
HAYWARD        SUNNY     78  60  53 VRB7      29.98F
SIREN          CLOUDY    79  64  61 SE6       29.94F HX  81
CUMBERLAND     CLOUDY    73  63  68 E6        29.96F
RICE LAKE      CLOUDY    76  65  68 E7        29.97F
CHETEK         CLOUDY    77  69  78 MISG      29.96F
LADYSMITH      SUNNY     79  64  60 E6        29.99F HX  81
EAU CLAIRE     CLOUDY    81  66  60 E10       29.94F HX  83
MENOMONIE      CLOUDY    79  70  72 E8        29.93F HX  82
NEW RICHMOND   MOSUNNY   79  66  65 E10       29.93F HX  81
OSCEOLA        CLOUDY    78  67  68 E9        29.94F HX  80
$$

WIZ003>005-009-010-017-018-231500-
NORTH CENTRAL WISCONSIN

CITY           SKY/WX    TMP DP  RH WIND       PRES   REMARKS
MANITOWISH WTR SUNNY     76  63  63 E3        30.03F
ARBOR VITAE    SUNNY     77  62  59 E3        30.03F
WOODRUFF       SUNNY     77  62  59 E3        30.03F
RHINELANDER    SUNNY     77  62  59 NE6       30.05R
EAGLE RIVER    SUNNY     76  59  56 CALM      30.04S
LAND O LAKES   SUNNY     77  58  51 CALM      30.05F
PHILLIPS       CLOUDY    76  63  64 E5        30.01F
TOMAHAWK       SUNNY     76  64  66 NE5       30.03F
MEDFORD        SUNNY     76  67  73 E6        30.00F
MERRILL        SUNNY     78  66  66 E6        30.01F HX  80
$$

WIZ029-030-035-036-043>047-231500-
CENTRAL WISCONSIN

CITY           SKY/WX    TMP DP  RH WIND       PRES   REMARKS
WAUSAU         SUNNY     77  65  66 SE6       29.99S
MOSINEE        SUNNY     77  68  73 E7        30.02S
MARSHFIELD     SUNNY     79  67  66 E7        29.99F HX  81
STEVENS POINT  SUNNY     78  68  69 E8        30.01S HX  80
WAUPACA        MOSUNNY   82  69  64 NE5       30.00R HX  84
WAUTOMA        MOSUNNY   80  70  71 NE6       29.99S HX  83
WISC RAPIDS    SUNNY     82  67  60 E6        30.00S HX  84
CAMP DOUGLAS   PTSUNNY   75  75 100 SE5       29.98R
$$

WIZ011>013-019>022-031-037>040-048>050-231500-
NORTHEAST WISCONSIN

CITY           SKY/WX    TMP DP  RH WIND       PRES   REMARKS
ANTIGO         SUNNY     76  64  65 CALM      30.04R
SHAWANO        SUNNY     79  66  65 NE3       30.00S HX  81
OCONTO         MOSUNNY   77  64  63 N3        29.99S
STURGEON BAY   SUNNY     78  63  59 N3        30.00S HX  80
GREEN BAY      SUNNY     80  67  64 NE9       29.99S HX  82
MANITOWOC      SUNNY     82  68  62 CALM      29.99S HX  85
APPLETON       MOSUNNY   81  57  44 VRB6      29.99S HX  81
CLINTONVILLE   SUNNY     77  63  61 NE5       29.99S
OSHKOSH          N/A     80  69  69 NE6       29.99R HX  83
$$

WIZ032>034-041-042-053>061-231500-
SOUTHWEST WISCONSIN

CITY           SKY/WX    TMP DP  RH WIND       PRES   REMARKS
LA CROSSE      CLOUDY    78  75  90 E6        29.93F THUNDER HX  81
SPARTA         MOSUNNY   77  71  83 CALM      29.95F
VIROQUA        CLOUDY    77  77 100 E6        29.97F VSB 1/2
BOSCOBEL       CLOUDY    78  76  93 NW5       29.97R THUNDER FOG
PRAIRIE DU CHI RAIN      73  72  95 S6        29.95F
PLATTEVILLE    CLOUDY    80  80  99 SE5       29.99R HX  86
$$

WIZ056-057-062-063-064-067-068-231500-
SOUTH CENTRAL WISCONSIN

CITY           SKY/WX    TMP DP  RH WIND       PRES   REMARKS
REEDSBURG      CLOUDY    77  77 100 CALM      29.97F FOG
BARABOO/DELLS  CLOUDY    77  76  95 CALM      29.99R FOG
LONE ROCK      CLOUDY    80  77  90 E5        29.97S HX  87
MINERAL POINT  CLOUDY    81  81 100 CALM      30.00R HX  91
MADISON        PTSUNNY   82  78  88 CALM      29.98R HX  91
MIDDLETON      PTSUNNY   83  78  84 CALM      29.99R HX  94
WATERTOWN      FOG       77  77 100 CALM      29.99R VSB 1/4
MONROE         PTSUNNY   79  75  89 NE5       29.99R HX  82
JANESVILLE     MOSUNNY   84  75  74 CALM      29.98S HX  92
$$

WIZ051-052-058>065-066-070>072-231500-
SOUTHEAST WISCONSIN

CITY           SKY/WX    TMP DP  RH WIND       PRES   REMARKS
MILWAUKEE      MOSUNNY   88  74  63 CALM      29.98S HX  96
WAUKESHA       MOSUNNY   77  75  94 CALM      30.00F
MILWAUKEE/TIMM SUNNY     84  73  70 CALM      29.99S HX  91
RACINE         MOSUNNY   86  76  71 NE6       30.00S HX  96
BURLINGTON     MOSUNNY   82  77  84 CALM      29.98F HX  91
KENOSHA        MOSUNNY   84  78  82 CALM      29.99S HX  95
FOND DU LAC    SUNNY     80  71  74 N7        29.99S HX  84
SHEBOYGAN      SUNNY     82  70  66 NE8       29.99R HX  86
WEST BEND      SUNNY     82  75  78 CALM      29.99S HX  89
JUNEAU         FOG       77  76  99 E3        30.00S VSB 1/4
$$

LSZ147-162-231500-
LAKE SUPERIOR

STATION/POSITION TIME  TEMP    WIND        PRES    WAVE
                       AIR SEA DIR/SP/G            HT/PER
                 (UTC) (F)     (DEG/KT/KT) (MB)    (FT/S)
W MID LAKE BUOY  1350   61 58   70/  8/ 10 1015.4R   0
DEVILS ISLAND    1400   69      50/  4/  4 1015.3F
SAXON HARBOR     1300   70      50/  1/  2 1015.6
$$

LMZ867-665-643>646-231500-
LAKE MICHIGAN

STATION/POSITION TIME  TEMP    WIND        PRES    WAVE
                       AIR SEA DIR/SP/G            HT/PER
                 (UTC) (F)     (DEG/KT/KT) (MB)    (FT/S)
CHAMBERS ISLAND  1300   78      CALM  /  3 1015.6R
S GREEN BAY BUOY 1200   73 74   10/  2/  2   N/A
N MID LAKE BUOY  1350   69 68  340/  6/  8 1014.8R   1
NORTHPORT PIER   1300   72     320/  8/ 10 1015.2R
KEWAUNEE LAKESHO 1300   77      CALM  /  2 1014.7R
SHEBOYGAN LAKESH 1400   73      20/  6/  6 1015.4R
PORT WASHINGTON  1300   75      CALM  /  1 1015.6S
MILWAUKEE LAKESH 1310   70      70/  1/  1   N/A
S MID LAKE BUOY  1350   75 74  260/  2/  2 1014.6R
KENOSHA   LAKESH 1400   74     170/  4/  6 1015.2R
$$

TC  - TEMPERATURE IN CELSIUS
VSB - VISIBILITY IN STATUTE MILES
WCI - WIND CHILL INDEX
HX  - HEAT INDEX





USA.gov is the U.S. government's official web portal to all federal, state and local government web resources and services.